Погода в Мариуполе

Погода в Мариуполе : погода сейчас, прогноз погоды и архив. Всё, что Вы хотите узнать о погоде в Мариуполе!

Поиск расширенной информации на нашем сайте:

Полезная информация:

Другие новости

Новости СМИ2

Главная страница сайта

Новости сайта

03.07.2017

Напоминаем, что на нашем специализированном сайте Метеоцентр.Азия вы можете получить высокодетализированные автоматические прогнозы погоды по пунктам России, СНГ и мира в авиационном формате (включающие направление и скорость ветра, видимость, явления погоды, количество и форму облачности, нижнюю и верхнюю границу облачности).

Рекомендуем:

Погода в Мариуполе - сегодня

Время (UTC), дата Ветер
(°,м/с) 
Видим.   Явления Облачность Т
(°С)
Тd
(°С)
f(%) Тe
(°С)
Pmin
(гПа)
dP
(гПа)
Po
(мм)
O2
(г/м3)
Тmin Tmax R s Состояние
почвы
12 15.07.19 110 (В) 20000 м    10/4 600 м верхняя 
[Cu hum|Cs]
+25.9 +16.7 57 +38  1005.3  -0.9  748  272           
15 15.07.19 110 (В) 20000 м    10/3 600 м средняя 
[Cu hum|As trans]
+26.2 +15.3 51 +35  1005  -0.3  748  272           
18 15.07.19 180 (Ю) 20000 м  гроза без осадков{ливн. осадки}  10/6 600 м кучево-дожд., средняя 
[Cb cap|Ac und]
+19.6 +17 85 +32  1007.5  2.3  750  278    +26.6     
21 15.07.19 340 (С) 20000 м  слаб. ливневой дождь{гроза}  10/5 600 м кучево-дожд., средняя 
[Cb cap|Ac und]
+18.2 +15.8 86 +29  1007.4  -0.1  749  280           
00 16.07.19 360 (С) 10 км  ливневой дождь{гроза}  10/8 600 м кучево-дожд., средняя 
[Cb cap|Ac und]
+17.4 +15.5 89 +28  1006.1  -1.3  749  280         
03 16.07.19 340 (С) 2000 м  слаб. ливневой дождь  10/8 480 м кучево-дожд., средняя 
[Cb cap|Ac und]
+16 +14.2 89 +23  1005.4  -0.8  748  282          полностью
покрыта
пылью 
06 16.07.19 360 (С) 4000 м  слаб. ливневой дождь  10/10 600 м кучево-дожд. 
[Cb cap]
+17 +15.8 93 +27  1004.9  -0.4  748  280  +15.8    17     
09 16.07.19 340 (С) 10 км  {ливн. осадки}  10/8 600 м кучево-дожд., средняя 
[Cb cap|Ac und]
+18.4 +16.7 90 +31  1004.9  748  279           
12 16.07.19 320 (СЗ) 10 км  {ливн. осадки}  10/8 800 м кучево-дожд., средняя 
[Cb cap|Ac und]
+20.5 +17.2 81 +33  1004.4  -0.4  747  276           
15 16.07.19 320 (СЗ) 10 км    9/3 600 м средняя, верхняя 
[Cu med, cong|Ac trans|Cc]
+21.4 +15.7 70 +31  1005.4  748  276           
18 16.07.19 270 (З) 20000 м    10/4 600 м средняя 
[Sc|As trans]
+19.5 +16.2 81 +31  1007.2  1.7  749  278    +21.5     
21 16.07.19 290 (З) 20000 м    4/0 верхняя 
[Cs]
+17.4 +15.2 87 +27  1007.2  749  281           
00 17.07.19 290 (З) 20000 м    4/0 верхняя 
[Cs]
+16.6 +14.1 85 +24  1007.5  0.2  749  282           
03 17.07.19 320 (СЗ) 20000 м    6/0 верхняя 
[Ci]
+15.6 +14.2 91 +24  1007.4  -0.1  749  283           
06 17.07.19 160 (Ю) 10 км    4/0 верхняя 
[Ci fib]
+21.3 +16.3 73 +32  1007.7  0.5  750  277  +15        полностью
покрыта
пылью 
09 17.07.19 160 (Ю) 10 км    6/3 600 м верхняя 
[Cu med, cong|Cc]
+23.8 +16.4 63 +35  1007.3  -0.4  749  274           
12 17.07.19 230 (ЮЗ) 10 км  гроза без осадков  8/6 840 м кучево-дожд., верхняя 
[Cb cap|Ci fib]
+25.5 +17.2 60 +38  1007  -0.2  749  272           
15 17.07.19 200 (Ю) 10 км  {гроза}  3/3 600 м 
[Cu med, cong]
+23.8 +17.7 69 +24  1006.6  -0.5             
18 17.07.19 250 (З) 10 км  {гроза}  ясно 
+21.8 +17.6 77 +35  1007.1  0.5  749  276          полностью
покрыта
пылью 
21 17.07.19 270 (З) 10 км    ясно 
+20.3 +16.8 80 +32  1007.6  0.4  750  277           
00 18.07.19 320 (СЗ) 10 км    ясно 
+17.5 +15.3 87 +27  1007.3  -0.3  749  281           
03 18.07.19 340 (С) 10 км    ясно 
+16.7 +13.3 80 +17  1008  0.6        90     
06 18.07.19 110 (В) 10 км    ясно 
+23.7 +14.6 57 +32  1008.4  0.6  750  275  +16.2        полностью
покрыта
пылью 
09 18.07.19 140 (ЮВ) 10 км    3/1 600 м верхняя 
[Cu hum|Cc]
+24.8 +16.5 60 +36  1008.6  0.3  751  274         
12 18.07.19 160 (Ю) 10 км    6/3 600 м верхняя 
[Cu hum|Cs]
+27.3 +17.5 55 +41  1008.6  751  271           
Время (UTC), дата Ветер
(°,м/с) 
Видим.   Явления Облачность Т
(°С)
Тd
(°С)
f(%) Тe
(°С)
Pmin
(гПа)
dP
(гПа)
Po
(мм)
O2
(г/м3)
Тmin Tmax R s Состояние
почвы

Для получения пояснительной информации подведите курсор к названию столбца.

ПОГОДА в Мариуполе - архив

Всё, что Вы хотите узнать о погоде в Мариуполе - удобно и подробно!

Выберите нужную дату (начиная с 1 января 2018* года) и нажмите кнопку "Найти".
Будут отображены архивные сводки погоды по пункту Мариуполь, начиная с указанной даты.


Отображать данные в формате CSV (для использования в таблицах Excel)


Внимание! Наш архив погоды предназначен исключительно для личного некоммерческого использования в познавательных целях. Если Вам необходимы официальные справки о состоянии погоды (для производственных, юридических, коммерческих и т.п. целей), обращайтесь в органы Росгидромета.

*Примечание: данная дата относится к архиву по метеостанциям СССР (Россия, СНГ, Балтия).
Архив по метеостанциям Зарубежной Европы и Азии (кроме Китая) хранится 10 дней, по другим регионам земного шара (Китай, Африка, Америка, Австралия, Океания) - 1 день.

Мариуполь - район местоположения метеостанции


Название, широта, долгота, высота метеостанции:
Мариуполь (город) 47°ш. 37.5°д. 70 м над ур. моря [Украина]

Дополнительная информация

В oтличие oт бoльшинства пoгoдных сайтoв мы публикуем пoдрoбную метеoинфoрмацию в детальнoм прoфессиoнальнoм фoрмате.

Характеристики температуры и влажнoсти вoздуха измеряются на высoте 2 м в тени вдали oт зданий и деревьев.
Скoрoсть ветра измеряется на высoте 10 м (на урoвне рoста челoвека скoрoсть ветра ниже в 1.5-2 раза). Если метеoстанция нахoдится в гoрoде или в лесу, тo скoрoсть ветра занижена на 2-4 м/с пo сравнению с oткрытым местoм. Скoрoсть ветра над акватoриями крупных рек и oзёр, а также на вершинах хoлмoв на 2-5 м/с выше, чем в oбычных услoвиях.
Атмoсфернoе давление в разных тoчках местнoсти мoжет значительнo oтличаться oт давления на метеoстанции, в зависимoсти oт услoвий рельефа (при пoдъёме на 10 м давление пoнижается примернo на 1 мм рт.ст.).